BEIDOU-2 G8 (C01)

Last updated on Mon Jun 22 2026 00:03:31 GMT+0000 (Coordinated Universal Time)

1 44231U 19027A 26172.56504258 -.00000249 00000+0 00000+0 0 9990 2 44231 1.6705 74.5245 0010115 282.4745 260.6959 1.00269615 26120
UTC large
Height (km)
Speed (km/s)
/
Latitude / Longitude
Inclination (degrees)
Orbital Period (minutes)
Azimuth
Elevation
Range (km)
Doppler Factor

Next 0 passes for location: London (51.5072 / 0.1276)

No passes found over London.
BEIDOU-2 G8 (C01)